Location: Taukkyan
(23.1052°N, 94.0030°E)
Time: 11:50:11
(UTC+00:00)

NOSS 3-3 (A) - Pass Details

Date: 06 July 2020
Orbit: 825 x 1387 km, 63.4° (Epoch: 09 August)

Event Time Altitude Azimuth Distance (km) Brightness Sun altitude
Rises 14:13:24 0° 203° (SSW) 3,345 6.7 -20.5°
Reaches altitude 10° 14:15:47 10° 202° (SSW) 2,418 5.9 -20.9°
Maximum altitude 14:21:17 82° 115° (ESE) 862 3.6 -21.9°
Drops below altitude 10° 14:27:13 10° 29° (NNE) 2,594 6.3 -23.0°
Sets 14:29:51 0° 28° (NNE) 3,608 7.1 -23.4°
